Weather reports worldwide

Advertisment
Coleshill, United Kingdom (3535): temperature & dewpoint: 29.07.2020 00:00:00 - 04.08.2020 00:00:00 (BST)Coleshill, United Kingdom (3535): temperature -20cm & temperature -100cm: 29.07.2020 00:00:00 - 04.08.2020 00:00:00 (BST)Coleshill, United Kingdom (3535): wind speed: 29.07.2020 00:00:00 - 04.08.2020 00:00:00 (BST)Coleshill, United Kingdom (3535): wind direction: 29.07.2020 00:00:00 - 04.08.2020 00:00:00 (BST)Coleshill, United Kingdom (3535): reduced air pressure: 29.07.2020 00:00:00 - 04.08.2020 00:00:00 (BST)Coleshill, United Kingdom (3535): visibility: 29.07.2020 00:00:00 - 04.08.2020 00:00:00 (BST)Coleshill, United Kingdom (3535): precipitation: 29.07.2020 00:00:00 - 04.08.2020 00:00:00 (BST)
Date & Time tt [°C] td [°C] tt -20cm [°C] tt -100cm [°C] ff [km/h] ff [kn] dd ppp [hPa] vv [km] rr [mm]
04.08.2020 00:00:00 10,1 6,9 - - 0 0 N 1018,3 50 0,0
03.08.2020 23:00:00 11,1 6,5 - - 2 1 N 1018,0 50 0,0
03.08.2020 22:00:00 12,6 6,2 - - 5 3 NNW 1017,7 50 0,0
03.08.2020 21:00:00 14,4 5,9 - - 11 6 NNW 1017,2 50 0,0
03.08.2020 20:00:00 17,0 6,6 - - 13 7 NW 1016,7 45 0,0
03.08.2020 19:00:00 17,3 6,0 - - 15 8 N 1016,2 50 0,0
03.08.2020 18:00:00 18,5 5,9 - - 16 9 NNW 1016,1 35 0,0
03.08.2020 17:00:00 18,5 7,2 - - 15 8 NW 1016,3 35 0,0
03.08.2020 16:00:00 18,1 7,2 - - 15 8 WNW 1016,2 45 0,0
03.08.2020 15:00:00 18,2 7,5 - - 13 7 NW 1016,4 45 0,0
03.08.2020 14:00:00 17,8 8,2 - - 16 9 NW 1016,5 45 0,0
03.08.2020 13:00:00 17,0 7,7 - - 11 6 WNW 1016,4 50 0,0
03.08.2020 12:00:00 16,9 7,4 - - 9 5 NW 1016,5 45 0,0
03.08.2020 11:00:00 17,4 8,6 - - 11 6 NW 1016,3 45 0,0
03.08.2020 10:00:00 16,6 10,0 17,9 16,7 13 7 NNW 1016,4 40 0,0
03.08.2020 09:00:00 15,4 10,3 - - 15 8 NW 1016,4 35 0,0
03.08.2020 08:00:00 14,0 10,1 - - 13 7 NW 1016,2 50 0,0
03.08.2020 07:00:00 11,3 10,7 - - 2 1 WNW 1016,2 45 0,0
03.08.2020 06:00:00 9,3 8,8 - - 2 1 S 1016,2 28 0,0
03.08.2020 05:00:00 9,4 8,7 - - 4 2 SSW 1015,8 35 0,0
03.08.2020 04:00:00 9,7 8,4 - - 2 1 SW 1015,7 50 0,0
03.08.2020 03:00:00 11,4 8,8 - - 4 2 W 1016,0 50 0,0
03.08.2020 02:00:00 12,5 9,1 - - 8 4 WNW 1016,1 50 0,0
03.08.2020 01:00:00 12,8 8,6 - - 8 4 NNW 1016,1 50 0,0
03.08.2020 00:00:00 13,9 8,8 - - 8 4 NNW 1016,0 50 0,0
02.08.2020 23:00:00 13,8 9,0 - - 5 3 NW 1015,8 50 0,0
02.08.2020 22:00:00 14,6 9,5 - - 8 4 N 1015,6 50 0,0
02.08.2020 21:00:00 16,8 10,1 - - 15 8 NNW 1015,2 50 0,0
02.08.2020 20:00:00 18,6 9,2 - - 13 7 NNW 1014,7 50 0,0
02.08.2020 19:00:00 20,0 8,2 - - 11 6 WNW 1014,4 40 0,0
02.08.2020 18:00:00 21,1 8,4 - - 15 8 WNW 1014,4 30 0,0
02.08.2020 17:00:00 20,3 8,1 - - 11 6 W 1014,5 40 0,0
02.08.2020 16:00:00 20,4 8,0 - - 15 8 W 1014,8 50 0,0
02.08.2020 15:00:00 22,1 9,6 - - 13 7 WSW 1014,9 35 0,0
02.08.2020 14:00:00 20,9 10,4 - - 11 6 WSW 1015,4 30 0,0
02.08.2020 13:00:00 20,2 10,3 - - 11 6 WSW 1015,6 35 0,0
02.08.2020 12:00:00 18,8 10,7 - - 9 5 SW 1015,9 50 0,0
02.08.2020 11:00:00 17,5 10,7 - - 8 4 SW 1016,2 40 0,0
02.08.2020 10:00:00 16,5 10,9 18,0 16,7 9 5 WSW 1016,4 50 0,0
02.08.2020 09:00:00 15,7 11,3 - - 8 4 SW 1016,2 40 0,0
02.08.2020 08:00:00 13,2 10,9 - - 5 3 SSW 1016,3 45 0,0
02.08.2020 07:00:00 11,3 10,6 - - 8 4 SSE 1016,1 35 0,0
02.08.2020 06:00:00 8,8 8,2 - - 5 3 SSE 1016,1 35 0,0
02.08.2020 05:00:00 8,7 8,1 - - 8 4 SSE 1015,9 35 0,0
02.08.2020 04:00:00 9,3 8,0 - - 4 2 SSE 1016,1 40 0,0
02.08.2020 03:00:00 11,3 8,6 - - 4 2 SW 1016,0 40 0,0
02.08.2020 02:00:00 11,3 8,2 - - 4 2 S 1016,2 45 0,0
02.08.2020 01:00:00 13,1 8,4 - - 9 5 W 1016,3 50 0,0
02.08.2020 00:00:00 13,3 8,5 - - 8 4 W 1016,4 45 0,0
01.08.2020 23:00:00 14,8 8,4 - - 8 4 W 1016,3 40 0,0
01.08.2020 22:00:00 16,8 8,5 - - 16 9 W 1016,0 50 0,0
01.08.2020 21:00:00 17,4 9,4 - - 11 6 WNW 1015,4 50 0,0
01.08.2020 20:00:00 18,3 9,9 - - 11 6 WSW 1015,1 50 0,0
01.08.2020 19:00:00 19,3 13,0 - - 11 6 NW 1014,8 45 0,0
01.08.2020 18:00:00 19,6 13,3 - - 16 9 NW 1014,9 50 0,0
01.08.2020 17:00:00 19,0 14,1 - - 15 8 NW 1014,8 50 0,0
01.08.2020 16:00:00 18,7 15,2 - - 9 5 WNW 1014,9 35 0,2
01.08.2020 15:00:00 20,1 14,9 - - 13 7 WNW 1014,4 50 0,0
01.08.2020 14:00:00 20,9 13,3 - - 15 8 SSW 1014,1 50 0,0
01.08.2020 13:00:00 20,7 12,8 - - 11 6 SW 1014,4 45 0,0
01.08.2020 12:00:00 20,1 13,1 - - 8 4 SW 1014,4 45 0,0
01.08.2020 11:00:00 19,2 13,8 - - 8 4 SW 1014,5 50 0,0
01.08.2020 10:00:00 17,5 14,2 18,9 16,5 8 4 SW 1014,4 45 0,0
01.08.2020 09:00:00 16,7 13,6 - - 8 4 SSW 1014,1 30 0,0
01.08.2020 08:00:00 16,5 13,8 - - 8 4 SSW 1013,5 23 0,0
01.08.2020 07:00:00 14,6 13,1 - - 8 4 S 1013,5 35 0,0
01.08.2020 06:00:00 13,0 11,9 - - 4 2 SSE 1013,6 17 0,0
01.08.2020 05:00:00 14,1 12,2 - - 8 4 SSW 1013,3 27 0,0
01.08.2020 04:00:00 15,5 12,2 - - 8 4 SW 1012,8 40 0,0
01.08.2020 03:00:00 16,4 12,5 - - 11 6 WSW 1012,7 45 0,0
01.08.2020 02:00:00 17,2 14,0 - - 9 5 WSW 1012,5 45 0,0
01.08.2020 01:00:00 18,2 14,7 - - 5 3 WSW 1012,0 50 0,0
01.08.2020 00:00:00 19,9 15,7 - - 8 4 WSW 1011,2 50 0,0
31.07.2020 23:00:00 20,8 16,5 - - 8 4 SW 1010,8 50 0,0
31.07.2020 22:00:00 21,5 16,3 - - 9 5 WSW 1010,4 50 0,0
31.07.2020 21:00:00 22,9 15,1 - - 11 6 WSW 1009,7 45 0,0
31.07.2020 20:00:00 24,4 14,7 - - 13 7 SW 1009,1 45 0,0
31.07.2020 19:00:00 26,0 15,8 - - 13 7 WSW 1007,9 40 0,0
31.07.2020 18:00:00 29,5 16,2 - - 13 7 SW 1007,3 45 0,0
31.07.2020 17:00:00 33,4 14,9 - - 11 6 SW 1006,3 30 0,0
31.07.2020 16:00:00 34,4 14,0 - - 22 12 S 1006,7 23 0,0
31.07.2020 15:00:00 33,7 14,0 - - 21 11 S 1007,3 26 0,0
31.07.2020 14:00:00 33,3 13,6 - - 22 12 SSE 1007,8 30 0,0
31.07.2020 13:00:00 32,1 12,4 - - 22 12 SE 1008,2 26 0,0
31.07.2020 12:00:00 30,9 13,3 - - 18 10 SE 1008,8 35 0,0
31.07.2020 11:00:00 28,8 14,0 - - 13 7 SE 1009,9 29 0,0
31.07.2020 10:00:00 26,3 13,9 18,0 16,2 11 6 SE 1010,4 30 0,0
31.07.2020 09:00:00 22,5 12,9 - - 13 7 SSE 1010,9 30 0,0
31.07.2020 08:00:00 19,9 13,1 - - 11 6 SSE 1011,3 45 0,0
31.07.2020 07:00:00 17,7 11,8 - - 11 6 SSE 1011,7 40 0,0
31.07.2020 06:00:00 16,3 11,1 - - 9 5 SSE 1012,3 40 0,0
31.07.2020 05:00:00 16,5 11,0 - - 9 5 SSE 1012,2 50 0,0
31.07.2020 04:00:00 16,1 9,7 - - 5 3 SE 1013,0 40 0,0
31.07.2020 03:00:00 16,4 9,5 - - 8 4 SSE 1013,9 40 0,0
31.07.2020 02:00:00 17,0 9,8 - - 8 4 SSE 1014,4 50 0,0
31.07.2020 01:00:00 17,5 10,2 - - 8 4 SSE 1014,6 50 0,0
31.07.2020 00:00:00 15,8 10,0 - - 5 3 S 1014,7 50 0,0
30.07.2020 23:00:00 17,1 10,2 - - 5 3 SSE 1014,5 50 0,0
30.07.2020 22:00:00 19,4 10,6 - - 5 3 SSE 1014,7 45 0,0
30.07.2020 21:00:00 22,2 10,2 - - 5 3 SSE 1014,5 50 0,0
30.07.2020 20:00:00 25,0 11,3 - - 8 4 S 1014,5 40 0,0
30.07.2020 19:00:00 26,1 10,7 - - 11 6 SSE 1014,5 45 0,0
30.07.2020 18:00:00 26,6 9,5 - - 15 8 S 1014,9 24 0,0
30.07.2020 17:00:00 26,3 9,3 - - 11 6 S 1015,4 50 0,0
30.07.2020 16:00:00 26,1 10,0 - - 16 9 S 1015,9 45 0,0
30.07.2020 15:00:00 25,6 10,7 - - 9 5 S 1016,3 35 0,0
30.07.2020 14:00:00 24,6 11,2 - - 11 6 S 1016,7 29 0,0
30.07.2020 13:00:00 22,5 11,4 - - 15 8 S 1017,4 40 0,0
30.07.2020 12:00:00 22,0 13,6 - - 11 6 SE 1017,8 35 0,0
30.07.2020 11:00:00 19,6 12,7 - - 13 7 SSE 1018,3 40 0,0
30.07.2020 10:00:00 19,3 12,7 17,2 16,2 11 6 S 1018,4 20 0,0
30.07.2020 09:00:00 17,4 12,6 - - 9 5 SSE 1018,6 30 0,0
30.07.2020 08:00:00 16,2 12,2 - - 8 4 S 1018,4 35 0,0
30.07.2020 07:00:00 14,2 12,0 - - 8 4 SSE 1018,1 35 0,0
30.07.2020 06:00:00 14,6 12,0 - - 5 3 S 1018,2 30 0,0
30.07.2020 05:00:00 14,8 12,0 - - 5 3 S 1018,3 45 0,0
30.07.2020 04:00:00 14,7 12,2 - - 4 2 SSE 1018,4 30 0,0
30.07.2020 03:00:00 14,9 11,9 - - 4 2 S 1018,9 45 0,0
30.07.2020 02:00:00 14,7 12,2 - - 4 2 S 1018,8 27 0,0
30.07.2020 01:00:00 14,5 12,1 - - 2 1 SE 1019,3 50 0,0
30.07.2020 00:00:00 14,1 11,5 - - 2 1 E 1019,2 45 0,0
29.07.2020 23:00:00 15,5 11,3 - - 4 2 NE 1019,5 45 0,0
29.07.2020 22:00:00 16,4 11,3 - - 5 3 N 1019,3 45 0,0
29.07.2020 21:00:00 17,5 10,1 - - 4 2 WNW 1018,8 35 0,0
29.07.2020 20:00:00 18,3 9,5 - - 9 5 WSW 1018,8 50 0,0
29.07.2020 19:00:00 18,9 9,9 - - 8 4 WSW 1018,7 45 0,0
29.07.2020 18:00:00 19,4 9,6 - - 9 5 WSW 1019,0 30 0,0
29.07.2020 17:00:00 21,0 10,3 - - 9 5 WSW 1018,7 40 0,0
29.07.2020 16:00:00 19,3 10,1 - - 11 6 SW 1019,0 45 0,0
29.07.2020 15:00:00 19,4 10,6 - - 8 4 SW 1019,4 30 0,0
29.07.2020 14:00:00 18,3 11,1 - - 13 7 SSW 1019,7 40 0,0
29.07.2020 13:00:00 17,7 9,9 - - 9 5 SW 1020,0 45 0,0
29.07.2020 12:00:00 17,2 9,1 - - 9 5 W 1020,0 45 0,0
29.07.2020 11:00:00 16,4 8,6 - - 9 5 WNW 1020,1 30 0,0
29.07.2020 10:00:00 15,7 9,5 16,7 16,2 8 4 W 1020,0 40 0,0
29.07.2020 09:00:00 14,9 9,1 - - 8 4 W 1019,8 45 0,0
29.07.2020 08:00:00 14,3 9,7 - - 5 3 W 1019,4 45 0,0
29.07.2020 07:00:00 13,5 10,0 - - 4 2 WSW 1019,3 50 0,0
29.07.2020 06:00:00 11,9 9,1 - - 4 2 WSW 1019,0 40 0,0
29.07.2020 05:00:00 12,5 9,4 - - 4 2 WSW 1018,7 50 0,0
29.07.2020 04:00:00 11,8 8,7 - - 4 2 SW 1018,5 45 0,0
29.07.2020 03:00:00 11,8 8,8 - - 5 3 SSW 1018,4 45 0,0
29.07.2020 02:00:00 11,5 8,3 - - 8 4 SSW 1018,5 50 0,0
29.07.2020 01:00:00 12,4 8,3 - - 5 3 SSW 1018,5 45 0,0
29.07.2020 00:00:00 11,9 7,8 - - 4 2 SSW 1018,7 50 0,0

tt = temperature
td = dewpoint
tt -20cm = temperature -20cm
tt -100cm = temperature -100cm
ff = wind speed
dd = wind direction
ppp = reduced air pressure
vv = visibility
rr = precipitation

Next stations